Location: Kelowna
(49.8880°N, 119.4960°W)
Time: 14:39:55
(UTC-07:00)

TIGRISAT - Pass Details

Date: 02 May 2024
Orbit: 594 x 672 km, 97.7° (Epoch: 27 May)

Event Time Altitude Azimuth Distance (km) Brightness Sun altitude
Rises 04:19:49 0° 151° (SSE) 2,879 ? -10.5°
Reaches altitude 10° 04:22:03 10° 147° (SSE) 1,967 ? -10.3°
Maximum altitude 04:26:11 52° 71° (ENE) 756 ? -9.7°
Drops below altitude 10° 04:30:18 10° 355° (N) 1,950 ? -9.2°
Sets 04:32:30 0° 351° (N) 2,852 ? -8.9°
